Regional Weather Roundup
Issued by NWS Wakefield, VA

Home | Current Version | Previous Version | Graphics & Text | Print | Product List | Glossary On
Versions: 1 2 3 4 5 6 7 8 9 10 11 12 13 14 15 16 17 18 19 20 21 22 23 24 25 26 27
000
ASUS41 KAKQ 210515
RWRAKQ

REGIONAL WEATHER ROUNDUP
NATIONAL WEATHER SERVICE WAKEFIELD VA
1200 AM EST TUE FEB 21 2017

Note: "fair" indicates few or no clouds below 12,000 feet with no
significant weather and/or obstructions to visibility. * = Denotes
station may not report precipitation (e.g., rain,snow,etc.),
thunder or fog.

VAZ042-051-052>054-056-210600-
NORTHERN VIRGINIA

CITY           SKY/WX    TMP DP  RH WIND       PRES   REMARKS
WASH NATIONAL  CLOUDY    49  29  46 CALM      30.32R
DULLES         CLOUDY    40  29  64 CALM      30.30S
FORT BELVOIR   CLOUDY    42  30  63 CALM      30.31R
QUANTICO       PTCLDY    45  38  76 CALM      30.32S
FREDERICKSBRG* CLOUDY    44  36  73 CALM      30.30S
STAFFORD*      PTCLDY    40  32  75 E5        30.34F
WARRENTON      PTCLDY    36  29  76 CALM      30.29F
CULPEPER*      MOCLDY    39  34  82 CALM      30.31S
MANASSAS*      CLOUDY    38  33  82 CALM      30.30F
LEESBURG*      PTCLDY    41  34  75 MISG      30.31S
WINCHESTER     PTCLDY    41  30  65 CALM      30.28S
FRONT ROYAL*   PTCLDY    50  32  50 E6        30.26S
LURAY*         CLOUDY    50  36  57 N6        30.25F
$$

VAZ048-049-060>072-079>083-210600-
CENTRAL AND SOUTH CENTRAL VIRGINIA

CITY           SKY/WX    TMP DP  RH WIND       PRES   REMARKS
RICHMOND       PTCLDY    46  36  68 CALM      30.29R
CHESTERFIELD*  FAIR      48  25  40 CALM      30.31R
PETERSBURG*    CLOUDY    42  35  76 CALM      30.30R
HANOVER        CLOUDY    43  33  68 CALM      30.31R
TAPPAHANNOCK*  CLOUDY    41  23  48 CALM      30.31R
QUINTON*       FAIR      44  37  74 CALM      30.29S
CHARLOTTSVILLE CLOUDY    52  34  50 E5        30.29R
GORDONSVILLE*  CLOUDY    40  36  84 CALM      30.29S
ORANGE*        CLOUDY    39  34  81 CALM      30.31S
LOUISA*        PTCLDY    52  37  58 E5        30.28R
BUMPASS*       FAIR      43  35  71 W7        30.30R
FARMVILLE*     PTCLDY    50  39  66 CALM      30.27R
CREWE*         FAIR      45  39  79 CALM      30.28R
FORT PICKETT*  FAIR      46  30  53 E5        30.27S
CHASE CITY*    FAIR      51  35  55 E6        30.25R
CLARKSVILLE*   FAIR      52  41  66 E9        30.24R
SOUTH HILL*    CLOUDY    47  38  72 CALM      30.32S
LAWRENCEVILLE* FAIR      48  34  57 CALM      30.26S
EMPORIA*       PTCLDY    45  36  70 E3        30.30R
$$

VAZ088>098-210600-
SOUTHEAST VIRGINIA

CITY           SKY/WX    TMP DP  RH WIND       PRES   REMARKS
NORFOLK        CLOUDY    47  35  63 NE5       30.28R
VIRGINIA BEACH PTCLDY    46  36  68 E5        30.27R
NORFOLK NAVAL  NOT AVBL
WEST POINT*    PTCLDY    36  33  88 CALM      30.31S
SALUDA*        FAIR      38  37  97 CALM      30.29S
NEWPORT NEWS   CLOUDY    44  37  76 CALM      30.29R
LANGLEY AFB    CLOUDY    44  38  78 E6        30.28R
FORT EUSTIS    MOCLDY    42  34  73 CALM      30.27R
WILLIAMSBURG*  MOCLDY    45  39  81 CALM      30.30S
HR EXEC AP*    FAIR      36  30  80 CALM      30.27S
FRANKLIN*      PTCLDY    41  34  75 CALM      30.29S
US460-WAKEFLD  PTCLDY    41  36  82 CALM      30.28S
$$

VAZ020-022-025-037-045-210600-
WEST CENTRAL AND SOUTHWEST VIRGINIA

CITY           SKY/WX    TMP DP  RH WIND       PRES   REMARKS
STAUNTON*      CLOUDY    39  34  80 SW3       30.27S
WAYNESBORO*    MOCLDY    52  30  43 SE9       30.26R
HOT SPRINGS VA CLOUDY    50  27  40 SE9       30.26S
LYNCHBURG      MOCLDY    52  35  52 N7        30.26R
DANVILLE       PTCLDY    49  41  74 CALM      30.23R
SOUTH BOSTON*  FAIR      51  38  61 E6        30.24R
MARTINSVILLE   MOCLDY    46  37  72 CALM      30.25S
ROANOKE        CLOUDY    51  35  54 E5        30.25R
BLACKSBURG     PTCLDY    54  36  49 SE7       30.25F
DUBLIN*        PTCLDY    49  34  55 CALM      30.23F
MARION*        PTCLDY    50  34  53 E3        30.23S
HILLSVILLE*    MOCLDY    52  38  58 CALM      30.22S
RICHLANDS*     FAIR      56  31  39 SE10G16   30.17S
WISE*          PTCLDY    55  27  33 CALM      30.16F
ABINGDON*      CLOUDY    48  35  61 E9        30.16F
$$

MDZ021>025-VAZ099-100-210600-
SOUTHERN MARYLAND AND THE DELMARVA PENINSULA

CITY           SKY/WX    TMP DP  RH WIND       PRES   REMARKS
PATUXENT RIVER CLEAR     42  35  76 NE3       30.30R
BAY BRIDGE APT PTCLDY    46  27  46 E7        30.33R
LEONARDTOWN    CLEAR     43  32  65 CALM      30.32R
DOVER          CLEAR     40  30  65 NE12      30.33R
GEORGETOWN     CLEAR     40  32  73 E7        30.33R
EASTON         PTCLDY    44  26  50 E8        30.36R
CAMBRIDGE      NOT AVBL
SALISBURY      CLEAR     35  31  85 CALM      30.31R
OCEAN CITY     CLEAR     44  34  67 NE9       30.32R
WALLOPS ISLAND CLEAR     40  37  89 CALM      30.31R
ACCOMACK*      CLEAR     40  37  89 E3        30.30R
$$

NCZ012>017-030>032-210600-
NORTH CENTRAL AND EASTERN NORTH CAROLINA

CITY           SKY/WX    TMP DP  RH WIND       PRES   REMARKS
ROANOKE RAPIDS FAIR      46  39  76 E5        30.26S
RALEIGH        CLOUDY    51  38  60 CALM      30.23R
ELIZABETH CITY CLOUDY    45  38  76 NE6       30.28R
AHOSKIE*         N/A     46  38  76 CALM      30.28R
EDENTON*       CLOUDY    47  41  78 CALM      30.27S
CURRITUCK*     CLOUDY    48  39  71 NE5       30.28R
KILL DEVIL HLS NOT AVBL
MANTEO         CLOUDY    47  45  90 E8        30.26R
CAPE HATTERAS  CLEAR     54  45  71 NE7       30.24R
TARBORO*       NOT AVBL
GOLDSBORO      CLOUDY    50  43  78 E3        30.22S
WASHINGTON     CLOUDY    46  37  70 E3        30.27R
GREENVILLE     CLOUDY    46  37  71 E6        30.26R
NEW BERN       CLOUDY    49  43  80 E5        30.27R
WILMINGTON     MOCLDY    55  49  80 E6        30.21S
$$

VAZ048-210600-
ELSEWHERE

CITY           SKY/WX    TMP DP  RH WIND       PRES   REMARKS
HARRISBURG PA  CLOUDY    40  17  39 E8        30.33R
BALTIMORE      CLOUDY    47  24  40 NE13      30.32R
ANNAPOLIS      PTCLDY    49  29  46 NE12      30.31S
ANDREWS AFB    CLOUDY    48  25  40 E12       30.29R
PHILADELPHIA   PTCLDY    41  14  33 NE8       30.35S
HENDERSON NC   CLOUDY    48  36  62 NE6       30.24R
GREENSBORO     MOCLDY    58  38  47 CALM      30.20S
ROCKY MOUNT    CLOUDY    52  41  66 VRB3      30.25S
$$

VAZ100-210600-
MARINE

STATION/POSITION TIME  TEMP    WIND        PRES    WAVE   SWELL
                       AIR SEA DIR/SP/G            HT/PER HT/PER
                 (UTC) (F)     (DEG/KT/KT) (MB)    (FT/S) (FT/S)
CAPE MAY NJ      0442   43 41   60/ 10/ 16 1026.8R
LEWES DE         0442   44 43   90/ 12/ 15 1027.0R
OCEAN-CITY-INLET 0442   45 45   70/  6/ 10 1027.0R
WACHAPREAGUE VA  0442   45 51   50/  5/  6 1025.8R
THOMAS POINT MD  0500   48 43   50/ 13/ 14   N/A
GOOSES REEF MD   0500   46 42   90/ 12/ 14 1026.8    1/ 2
COVE POINT MD    0442   48      80/  7/  9 1026.7R
SOLOMONS ISLAND  0442   49 44   50/  7/  9   N/A
BISHOPS HEAD MD  0442   45 48   40/  5/  7 1026.4R
PINEY POINT MD   0448          110/  4/  5   N/A
POTOMAC MD       0450   44      80/  4/  4 1025.2R
CAMBRIDGE MD     0442   47 43   50/  8/  9 1025.9R
LEWISETTA VA     0442   46 46   70/  3/  4 1025.7R
RAPPAHANNOCK LGT 0448           70/  3/  3 1026.4R
YORK RVR RNG VA  0442   46      70/  4/  4 1025.0R
YORKTOWN VA      0442   48 46   90/  4/  5 1025.2R
JAMESTOWN VA     0450   48     100/  2/  4   N/A
DOMINION TERM VA 0442   49      80/  4/  5 1025.5R
KIPTOPEKE VA     0448      46                N/A
CHES BAY BRIDGE  0436   48 47   80/  8/  9 1025.2R
CAPE HENRY VA    0436   48      80/  8/  9   N/A
WILLOUBY STN VA  0436   48      80/  7/  8 1026.1R
S CRANEY ISL VA  0436   49     110/  2/  3 1025.0R
CAPE HENRY BUOY  0442      47                N/A     2/ 5
OFFSHORE WE BUOY 0451      47                N/A     2/ 5
64NM E OF VA BCH 0450   53 53   60/ 16/ 19 1024.3R   3/ 5   2/ 8
DUCK PIER NC     0436   49 49   50/  9/ 10 1024.2R
44100 DUCK FRF   0435      48                N/A     2/ 5
44056 DUCK FRF   0430      49                N/A     2/ 5
OREGON INLET NC  0448           30/  8/ 11   N/A
HATTERAS NC      0436   55 57   40/  7/ 10 1023.4R
DIAMOND SHLS NC  0450   60 76   50/ 19/ 23 1023.1R   6/ 8
CAPE LOOKOUT NC  0400   58      50/ 16/ 17 1023.2R
$$




USA.gov is the U.S. government's official web portal to all federal, state and local government web resources and services.